Regional Weather Roundup
Issued by NWS New Orleans/Baton Rouge, LA

Home | Current Version | Previous Version | Graphics & Text | Print | Product List | Glossary On
Versions: 1 2 3 4 5 6 7 8 9 10 11 12 13 14 15 16 17 18 19 20 21 22 23 24 25 26 27 28 29 30 31 32 33 34 35 36 37 38 39 40 41 42 43 44 45 46 47 48 49 50
316
ASUS44 KLIX 221110
RWRLIX
NEW ORLEANS REGIONAL WEATHER ROUNDUP
NATIONAL WEATHER SERVICE NEW ORLEANS LA
600 AM CDT MON SEP 22 2014

NOTE: "FAIR" INDICATES FEW OR NO CLOUDS BELOW 12,000 FEET WITH NO
      SIGNIFICANT WEATHER AND/OR OBSTRUCTIONS TO VISIBILITY.
      SKY/WX - SKY CONDITION AND SIGNIFICANT WEATHER.
      TMP - AIR TEMPERATURE.     DP    - DEWPOINT TEMPERATURE.
      RH  - RELATIVE HUMIDITY.   PRES  - PRESSURE.
      HI  - HEAT INDEX.          WCI   - WIND CHILL INDEX.

*  THESE STATIONS ARE NOT NWS OR FAA STATIONS AND ARE NOT UNDER
   NWS QUALITY CONTROL.

LAZ038-040-048-061>063-065>067-069-221200-
SOUTHEAST LOUISIANA

CITY           SKY/WX    TMP DP  RH WIND       PRES   REMARKS
N.O. AUDUBON     N/A     73  72  98 MISG        N/A
N.O. INTL ARPT PTCLDY    73  70  90 NW3       30.02R
N.O. LAKEFRONT CLEAR     79  72  79 N7        30.02R
N.O. DOWNTOWN*   N/A     79  66  65 CALM      30.02R
SLIDELL        CLEAR     67  64  90 CALM      30.01S
BATON ROUGE    CLEAR     69  67  93 CALM      30.02S
BOOTHVILLE     CLEAR     80  73  79 N7        30.00R
BELLE CHASSE   CLEAR     70  66  87 CALM      30.01R
BOGALUSA*        N/A     67  64  89 CALM      30.03S
GALLIANO*      NOT AVBL
NEW ROADS*       N/A     69  68  98 CALM      30.03R
GONZALES*        N/A     68  68 100 CALM      30.02R
HAMMOND*       CLEAR     68  64  88 CALM      30.03S
HOUMA*           N/A     69  65  88 CALM      30.02R FOG
PORT FOURCHON* SUNNY     79  73  83 N9        30.04R

$$

MSZ070-080>082-221200-
SOUTHERN MISSISSIPPI

CITY           SKY/WX    TMP DP  RH WIND       PRES   REMARKS
MCCOMB         CLEAR     71  66  84 N8        30.03S
GULFPORT       CLEAR     69  67  93 CALM      30.00S
BILOXI         CLEAR     72  70  92 CALM      30.01R
PASCAGOULA     CLEAR     65  65 100 CALM      30.01S FOG

$$

COASTAL OBSERVATIONS
LAKE AND NEARSHORE STATIONS

STATION/POSITION TIME  TEMP    WIND        PRES    WAVE
                       AIR SEA DIR/SP/G            HT/PER
                 (UTC) (F)     (DEG/KT/KT) (MB)    (FT/S)
PASCAGOULA       1100   71     360/  5/  6 1015.7
WAVELAND YACHT   1100   73     290/  2/  2 1015.6
GRAND ISLE       1100   79 82   30/ 12/ 14 1016.5
SOUTHWEST PASS   1100   83 89   30/ 11/ 12 1015.7
NEW CANAL        1100   81 81  360/  5/  6 1016.8
SHELL BEACH      1100   80 78  360/  8/  9 1016.1

OFFSHORE STATIONS

STATION/POSITION TIME  TEMP    WIND        PRES    WAVE
                       AIR SEA DIR/SP/G            HT/PER
                 (UTC) (F)     (DEG/KT/KT) (MB)    (FT/S)
64 S DAUPHIN ISL 0951   82 84   60/  8/ 10 1015.7

$$




USA.gov is the U.S. government's official web portal to all federal, state and local government web resources and services.